Find Starlink 5386

NORAD ID: 54834 Int'l Des: 2022-177 Owner: SPXS Country: US Constellation: starlink operational
LEOCIRCULAR

Live-Position

3D-Globus wird geladen...

Über Starlink 5386

Beschreibung wird geladen...

Nächste Überflüge

Passes for default location (London). Set your location on the main map for personalized predictions.

Höhenverlauf

Loading altitude history...

Zweizeiliger Elementsatz

1 54834U 22177Q 26139.27414538 .00002081 00000-0 85156-4 0 9998
2 54834 43.0084 97.8303 0001974 262.3077 97.7551 15.27572310187725
Epoch: 19. Mai 2026 • Age: 7 hours

Aktueller Status

Höhe 484.6 km
Geschwindigkeit 7.63 km/s
Subsatellitenpunkt 30.12°N, 159.24°E
Startdatum 28. Dez. 2022
Alter 3.3 years
Typ internet

Technische Details

Klassifizierung Payload
Masse 305.00 kg
Trockenmasse 290.00 kg
Gesamtmasse 305.00 kg
Länge 0.20 m
Durchmesser 2.80 m
Spannweite 9.00 m
Form Box + pan
Hersteller SPXS
Bus-Typ Starlink
Phasenstatus In Orbit
Besitzer/Staat SPXS/US

Most Searched